Location: Bacharowice
(49.9333°N, 19.5833°E)
Time: 23:23:38
(UTC+00:00)

YAOGAN 11 - Pass Details

Date: 11 May 2021
Orbit: 614 x 667 km, 98.3° (Epoch: 21 June)

Event Time Altitude Azimuth Distance (km) Brightness Sun altitude
Exits shadow 23:41:11 55° 190° (S) 747 4.0 -20.5°
Maximum altitude 23:42:03 75° 257° (WSW) 646 4.0 -20.5°
Drops below altitude 10° 23:46:21 10° 342° (NNW) 1,988 7.4 -20.3°
Sets 23:48:33 0° 345° (NNW) 2,898 8.4 -20.2°
